User: anonymous   Login
Location: Invercargill
(46.4000°S, 168.3500°E)
Time: 06:06:29
(UTC+13:00)
Language:

Elektron 1 - Orbit

View from above orbital plane
View from above orbital plane
View from above satellite
View from above satellite

Ground track
Ground track

The orbit data is extracted from the following two-line orbital elements,

1   746U 64006A   19078.53473814 +.00000372 +00000-0 +11888-3 0  9994
2   746 060.8565 146.6903 3029233 270.5633 055.4201 09.03573521827487
Epoch (UTC): 19 March 2019 12:50:01
Eccentricity: 0.3029233
inclination: 60.8565°
perigee height: 409 km
apogee height: 6308 km
right ascension of ascending node: 146.6903°
argument of perigee: 270.5633°
revolutions per day: 9.03573521
mean anomaly at epoch: 55.4201°
orbit number at epoch: 82748

The dashed part of the orbit path shows where the satellite is in the earth's shadow,  

DLR